マクノート彗星

254P/McNaught (2020)

English version
Home page
Updated on May 13, 2024

---------------------------------------------------------------------

・ プロフィール

・ 写真集

・ 軌道要素

Epoch 2024 Mar. 31.0 TT = JDT 2460400.5
T 2020 Sept. 29.99800 TT                                Rudenko
q   3.1445634            (2000.0)            P               Q
n   0.09931030     Peri.  219.73581     +0.90354176     +0.09849861
a   4.6182047      Node   129.18739     -0.09767066     +0.99494407
e   0.3190940      Incl.   32.55028     -0.41722024     -0.01960414
P   9.92
>From 818 observations 2001 Oct. 23-2024 Feb. 12, mean residual 0".7.

・ 光度変化

        m1 = 4.2 + 5 logΔ + 20.0 log r(t - 400)

---------------------------------------------------------------------

軌道要素はM.P.E.C. 2024-D33に掲載されたものです。
光度グラフはComet for Windowsで作成したものです。

---------------------------------------------------------------------

Copyright(C) Seiichi Yoshida (comet@aerith.net). All rights reserved.